Time,TemperatureF,DewpointF,PressureIn,WindDirection,WindDirectionDegrees,WindSpeedMPH,WindSpeedGustMPH,Humidity,HourlyPrecipIn,Conditions,Clouds,dailyrainin,SoftwareType,DateUTC
2013-01-13 00:01:00,40.8,40.3,30.03,South,183,2.0,3.0,98,0.00,,,0.00,Wunderground v.1.12,2013-01-13 05:01:00,
2013-01-13 00:03:00,40.9,40.4,30.03,South,183,2.0,3.0,98,0.00,,,0.00,Wunderground v.1.12,2013-01-13 05:03:00,
2013-01-13 00:04:00,40.9,40.4,30.03,South,183,2.0,2.0,98,0.00,,,0.00,Wunderground v.1.12,2013-01-13 05:04:00,
2013-01-13 00:09:00,40.9,40.4,30.03,South,183,1.0,4.0,98,0.00,,,0.00,Wunderground v.1.12,2013-01-13 05:09:00,
2013-01-13 00:14:00,41.1,40.6,30.03,South,183,2.0,2.0,98,0.00,,,0.00,Wunderground v.1.12,2013-01-13 05:14:00,
2013-01-13 00:21:00,41.1,40.6,30.03,South,183,1.0,3.0,98,0.00,,,0.00,Wunderground v.1.12,2013-01-13 05:21:00,
2013-01-13 00:26:00,41.1,40.6,30.03,South,183,1.0,1.0,98,0.00,,,0.00,Wunderground v.1.12,2013-01-13 05:26:00,
2013-01-13 00:32:00,41.1,40.6,30.03,South,183,0.0,0.0,98,0.00,,,0.00,Wunderground v.1.12,2013-01-13 05:32:00,
2013-01-13 00:38:00,41.2,40.7,30.02,South,183,0.0,0.0,98,0.00,,,0.00,Wunderground v.1.12,2013-01-13 05:38:00,
2013-01-13 00:43:00,41.2,40.7,30.02,South,183,0.0,2.0,98,0.00,,,0.00,Wunderground v.1.12,2013-01-13 05:43:00,
2013-01-13 00:48:00,41.3,40.8,30.02,South,183,1.0,2.0,98,0.00,,,0.00,Wunderground v.1.12,2013-01-13 05:48:00,
2013-01-13 00:54:00,41.3,40.8,30.02,South,183,1.0,1.0,98,0.00,,,0.00,Wunderground v.1.12,2013-01-13 05:54:00,
2013-01-13 00:59:00,41.3,40.8,30.02,South,183,1.0,1.0,98,0.00,,,0.00,Wunderground v.1.12,2013-01-13 05:59:00,
2013-01-13 01:06:00,41.3,40.8,30.03,South,183,1.0,1.0,98,0.00,,,0.00,Wunderground v.1.12,2013-01-13 06:06:00,
2013-01-13 01:12:00,41.3,40.8,30.03,South,183,1.0,1.0,98,0.00,,,0.00,Wunderground v.1.12,2013-01-13 06:12:00,
2013-01-13 01:18:00,41.2,40.7,30.03,South,180,0.0,4.0,98,0.00,,,0.00,Wunderground v.1.12,2013-01-13 06:18:00,
2013-01-13 01:23:00,41.3,40.8,30.03,South,183,0.0,0.0,98,0.00,,,0.00,Wunderground v.1.12,2013-01-13 06:23:00,
2013-01-13 01:29:00,41.2,40.7,30.03,South,183,0.0,0.0,98,0.00,,,0.00,Wunderground v.1.12,2013-01-13 06:29:00,
2013-01-13 01:34:00,41.2,40.7,30.03,South,183,0.0,0.0,98,0.00,,,0.00,Wunderground v.1.12,2013-01-13 06:34:00,
2013-01-13 01:39:00,41.3,40.8,30.03,South,183,0.0,0.0,98,0.00,,,0.00,Wunderground v.1.12,2013-01-13 06:39:00,
2013-01-13 01:45:00,41.3,40.8,30.03,South,183,0.0,0.0,98,0.00,,,0.00,Wunderground v.1.12,2013-01-13 06:45:00,
2013-01-13 01:50:00,41.5,41.0,30.03,South,183,0.0,0.0,98,0.00,,,0.00,Wunderground v.1.12,2013-01-13 06:50:00,
2013-01-13 01:56:00,41.5,41.0,30.03,South,183,0.0,0.0,98,0.00,,,0.00,Wunderground v.1.12,2013-01-13 06:56:00,
2013-01-13 02:02:00,41.5,41.0,30.03,South,183,0.0,0.0,98,0.00,,,0.00,Wunderground v.1.12,2013-01-13 07:02:00,
2013-01-13 02:08:00,41.3,40.8,30.03,South,183,0.0,1.0,98,0.00,,,0.00,Wunderground v.1.12,2013-01-13 07:08:00,
2013-01-13 02:13:00,41.5,41.0,30.03,South,183,1.0,4.0,98,0.00,,,0.00,Wunderground v.1.12,2013-01-13 07:13:00,
2013-01-13 02:18:00,41.6,41.1,30.03,SSW,192,2.0,5.0,98,0.00,,,0.00,Wunderground v.1.12,2013-01-13 07:18:00,
2013-01-13 02:23:00,41.6,41.1,30.03,SSW,199,2.0,3.0,98,0.00,,,0.00,Wunderground v.1.12,2013-01-13 07:23:00,
2013-01-13 02:29:00,41.6,41.1,30.03,SW,216,2.0,6.0,98,0.00,,,0.00,Wunderground v.1.12,2013-01-13 07:29:00,
2013-01-13 02:34:00,41.6,41.1,30.02,SW,216,2.0,2.0,98,0.00,,,0.00,Wunderground v.1.12,2013-01-13 07:34:00,
2013-01-13 02:40:00,41.5,41.0,30.02,SW,216,0.0,0.0,98,0.00,,,0.00,Wunderground v.1.12,2013-01-13 07:40:00,
2013-01-13 02:46:00,41.5,41.0,30.02,SW,216,0.0,0.0,98,0.00,,,0.00,Wunderground v.1.12,2013-01-13 07:46:00,
2013-01-13 02:51:00,41.5,41.0,30.02,SW,216,0.0,0.0,98,0.00,,,0.00,Wunderground v.1.12,2013-01-13 07:51:00,
2013-01-13 02:57:00,41.3,40.8,30.02,SW,216,1.0,3.0,98,0.00,,,0.00,Wunderground v.1.12,2013-01-13 07:57:00,
2013-01-13 03:03:00,41.3,40.8,30.02,SW,216,1.0,3.0,98,0.00,,,0.00,Wunderground v.1.12,2013-01-13 08:03:00,
2013-01-13 03:08:00,41.5,41.0,30.02,SW,216,0.0,1.0,98,0.00,,,0.00,Wunderground v.1.12,2013-01-13 08:08:00,
2013-01-13 03:15:00,41.5,41.0,30.02,SW,216,0.0,0.0,98,0.00,,,0.00,Wunderground v.1.12,2013-01-13 08:15:00,
2013-01-13 03:20:00,41.5,41.0,30.02,SW,216,1.0,1.0,98,0.00,,,0.00,Wunderground v.1.12,2013-01-13 08:20:00,
2013-01-13 03:25:00,41.3,40.8,30.02,SW,216,1.0,2.0,98,0.00,,,0.00,Wunderground v.1.12,2013-01-13 08:25:00,
2013-01-13 03:31:00,41.3,40.8,30.02,SW,216,1.0,2.0,98,0.00,,,0.00,Wunderground v.1.12,2013-01-13 08:31:00,
2013-01-13 03:37:00,41.3,40.8,30.01,SW,216,1.0,3.0,98,0.00,,,0.00,Wunderground v.1.12,2013-01-13 08:37:00,
2013-01-13 03:43:00,41.3,40.8,30.01,SW,216,1.0,1.0,98,0.00,,,0.00,Wunderground v.1.12,2013-01-13 08:43:00,
2013-01-13 03:48:00,41.5,41.0,30.01,SW,216,0.0,1.0,98,0.00,,,0.00,Wunderground v.1.12,2013-01-13 08:48:00,
2013-01-13 03:54:00,41.5,41.0,30.01,SW,216,0.0,1.0,98,0.00,,,0.00,Wunderground v.1.12,2013-01-13 08:54:00,
2013-01-13 03:59:00,41.3,40.8,30.01,SW,216,1.0,1.0,98,0.00,,,0.00,Wunderground v.1.12,2013-01-13 08:59:00,
2013-01-13 04:05:00,41.3,40.8,30.01,SW,216,1.0,1.0,98,0.00,,,0.00,Wunderground v.1.12,2013-01-13 09:05:00,
2013-01-13 04:10:00,41.3,40.8,30.01,SW,216,1.0,2.0,98,0.00,,,0.00,Wunderground v.1.12,2013-01-13 09:10:00,
2013-01-13 04:16:00,41.3,40.8,30.01,SW,216,1.0,1.0,98,0.00,,,0.00,Wunderground v.1.12,2013-01-13 09:16:00,
2013-01-13 04:22:00,41.3,40.8,30.01,SW,216,1.0,3.0,98,0.00,,,0.00,Wunderground v.1.12,2013-01-13 09:22:00,
2013-01-13 04:28:00,41.3,40.8,30.01,SW,216,2.0,2.0,98,0.00,,,0.00,Wunderground v.1.12,2013-01-13 09:28:00,
2013-01-13 04:34:00,41.2,40.7,30.01,SW,216,1.0,3.0,98,0.00,,,0.00,Wunderground v.1.12,2013-01-13 09:34:00,
2013-01-13 04:40:00,41.3,40.8,30.01,SW,216,0.0,0.0,98,0.00,,,0.00,Wunderground v.1.12,2013-01-13 09:40:00,
2013-01-13 04:46:00,41.2,40.7,30.01,SW,216,0.0,0.0,98,0.00,,,0.00,Wunderground v.1.12,2013-01-13 09:46:00,
2013-01-13 04:51:00,41.2,40.7,30.00,SW,216,0.0,0.0,98,0.00,,,0.00,Wunderground v.1.12,2013-01-13 09:51:00,
2013-01-13 04:56:00,41.1,40.6,30.00,SW,216,0.0,1.0,98,0.00,,,0.00,Wunderground v.1.12,2013-01-13 09:56:00,
2013-01-13 05:02:00,41.1,40.6,30.00,SW,216,0.0,0.0,98,0.00,,,0.00,Wunderground v.1.12,2013-01-13 10:02:00,
2013-01-13 05:08:00,41.1,40.6,30.01,SW,216,0.0,0.0,98,0.00,,,0.00,Wunderground v.1.12,2013-01-13 10:08:00,
2013-01-13 05:13:00,41.1,40.6,30.01,SW,216,0.0,2.0,98,0.00,,,0.00,Wunderground v.1.12,2013-01-13 10:13:00,
2013-01-13 05:19:00,41.1,40.6,30.02,SW,216,0.0,0.0,98,0.00,,,0.00,Wunderground v.1.12,2013-01-13 10:19:00,
2013-01-13 05:24:00,41.2,40.7,30.02,SW,216,0.0,0.0,98,0.00,,,0.00,Wunderground v.1.12,2013-01-13 10:24:00,
2013-01-13 05:30:00,41.2,40.7,30.02,SW,216,0.0,0.0,98,0.00,,,0.00,Wunderground v.1.12,2013-01-13 10:30:00,
2013-01-13 05:35:00,40.8,40.3,30.02,SW,216,0.0,0.0,98,0.00,,,0.00,Wunderground v.1.12,2013-01-13 10:35:00,
2013-01-13 05:41:00,40.8,40.3,30.02,SW,216,0.0,0.0,98,0.00,,,0.00,Wunderground v.1.12,2013-01-13 10:41:00,
2013-01-13 05:47:00,40.9,40.4,30.02,SW,216,0.0,0.0,98,0.00,,,0.00,Wunderground v.1.12,2013-01-13 10:47:00,
2013-01-13 05:52:00,40.9,40.4,30.02,SW,216,0.0,0.0,98,0.00,,,0.00,Wunderground v.1.12,2013-01-13 10:52:00,
2013-01-13 05:57:00,40.6,40.1,30.02,SW,216,0.0,0.0,98,0.00,,,0.00,Wunderground v.1.12,2013-01-13 10:57:00,
2013-01-13 06:03:00,40.3,39.8,30.01,SW,216,0.0,0.0,98,0.00,,,0.00,Wunderground v.1.12,2013-01-13 11:03:00,
2013-01-13 06:09:00,40.3,39.8,30.01,SW,216,0.0,0.0,98,0.00,,,0.00,Wunderground v.1.12,2013-01-13 11:09:00,
2013-01-13 06:14:00,40.3,39.8,30.01,SW,216,0.0,0.0,98,0.00,,,0.00,Wunderground v.1.12,2013-01-13 11:14:00,
2013-01-13 06:19:00,40.3,39.8,30.01,SW,216,0.0,0.0,98,0.00,,,0.00,Wunderground v.1.12,2013-01-13 11:19:00,
2013-01-13 06:25:00,40.2,39.7,30.01,SW,216,0.0,0.0,98,0.00,,,0.00,Wunderground v.1.12,2013-01-13 11:25:00,
2013-01-13 06:30:00,39.8,39.3,30.01,SW,216,0.0,0.0,98,0.00,,,0.00,Wunderground v.1.12,2013-01-13 11:30:00,
2013-01-13 06:35:00,40.1,39.6,30.00,SW,216,0.0,0.0,98,0.00,,,0.00,Wunderground v.1.12,2013-01-13 11:35:00,
2013-01-13 06:40:00,40.5,40.0,30.00,SW,216,0.0,0.0,98,0.00,,,0.00,Wunderground v.1.12,2013-01-13 11:40:00,
2013-01-13 06:46:00,40.5,40.0,30.00,SW,216,0.0,0.0,98,0.00,,,0.00,Wunderground v.1.12,2013-01-13 11:46:00,
2013-01-13 06:52:00,40.5,40.0,30.01,SW,216,0.0,0.0,98,0.00,,,0.00,Wunderground v.1.12,2013-01-13 11:52:00,
2013-01-13 06:58:00,39.8,39.3,30.01,SW,216,0.0,0.0,98,0.00,,,0.00,Wunderground v.1.12,2013-01-13 11:58:00,
2013-01-13 07:03:00,39.9,39.4,30.01,SW,216,0.0,0.0,98,0.00,,,0.00,Wunderground v.1.12,2013-01-13 12:03:00,
2013-01-13 07:09:00,40.1,39.6,30.01,SW,216,0.0,0.0,98,0.00,,,0.00,Wunderground v.1.12,2013-01-13 12:09:00,
2013-01-13 07:15:00,40.1,39.6,30.01,SW,216,0.0,0.0,98,0.00,,,0.00,Wunderground v.1.12,2013-01-13 12:15:00,
2013-01-13 07:21:00,40.2,39.7,30.03,SW,216,0.0,0.0,98,0.00,,,0.00,Wunderground v.1.12,2013-01-13 12:21:00,
2013-01-13 07:26:00,40.3,39.8,30.03,SW,216,0.0,0.0,98,0.00,,,0.00,Wunderground v.1.12,2013-01-13 12:26:00,
2013-01-13 07:31:00,40.2,39.7,30.03,SW,216,0.0,1.0,98,0.00,,,0.00,Wunderground v.1.12,2013-01-13 12:31:00,
2013-01-13 07:38:00,40.2,39.7,30.03,SW,216,0.0,0.0,98,0.00,,,0.00,Wunderground v.1.12,2013-01-13 12:38:00,
2013-01-13 07:43:00,40.1,39.6,30.03,SW,216,1.0,2.0,98,0.00,,,0.00,Wunderground v.1.12,2013-01-13 12:43:00,
2013-01-13 07:48:00,40.3,39.8,30.04,SW,225,0.0,3.0,98,0.00,,,0.00,Wunderground v.1.12,2013-01-13 12:48:00,
2013-01-13 07:53:00,40.5,40.0,30.04,SW,216,1.0,1.0,98,0.00,,,0.00,Wunderground v.1.12,2013-01-13 12:53:00,
2013-01-13 07:58:00,40.2,39.7,30.04,SW,216,0.0,1.0,98,0.00,,,0.00,Wunderground v.1.12,2013-01-13 12:58:00,
2013-01-13 08:04:00,40.2,39.7,30.03,SW,216,0.0,0.0,98,0.00,,,0.00,Wunderground v.1.12,2013-01-13 13:04:00,
2013-01-13 08:10:00,40.3,39.8,30.03,SW,216,0.0,0.0,98,0.00,,,0.00,Wunderground v.1.12,2013-01-13 13:10:00,
2013-01-13 08:15:00,40.5,40.0,30.03,SW,216,0.0,1.0,98,0.00,,,0.00,Wunderground v.1.12,2013-01-13 13:15:00,
2013-01-13 08:20:00,40.8,40.3,30.03,SW,216,0.0,0.0,98,0.00,,,0.00,Wunderground v.1.12,2013-01-13 13:20:00,
2013-01-13 08:26:00,41.1,40.6,30.03,SW,216,0.0,0.0,98,0.00,,,0.00,Wunderground v.1.12,2013-01-13 13:26:00,
2013-01-13 08:31:00,41.2,40.7,30.03,SW,216,1.0,1.0,98,0.00,,,0.00,Wunderground v.1.12,2013-01-13 13:31:00,
2013-01-13 08:37:00,41.3,40.8,30.04,SW,216,1.0,1.0,98,0.00,,,0.00,Wunderground v.1.12,2013-01-13 13:37:00,
2013-01-13 08:43:00,41.3,40.8,30.04,SW,216,0.0,2.0,98,0.00,,,0.00,Wunderground v.1.12,2013-01-13 13:43:00,
2013-01-13 08:48:00,41.3,40.8,30.04,SW,216,1.0,3.0,98,0.00,,,0.00,Wunderground v.1.12,2013-01-13 13:48:00,
2013-01-13 08:53:00,41.5,41.0,30.04,SW,216,2.0,2.0,98,0.00,,,0.00,Wunderground v.1.12,2013-01-13 13:53:00,
2013-01-13 08:59:00,41.6,41.1,30.04,SW,216,1.0,1.0,98,0.00,,,0.00,Wunderground v.1.12,2013-01-13 13:59:00,
2013-01-13 09:04:00,41.8,41.3,30.04,SW,216,0.0,1.0,98,0.00,,,0.00,Wunderground v.1.12,2013-01-13 14:04:00,
2013-01-13 09:09:00,41.9,41.4,30.04,SW,216,1.0,3.0,98,0.00,,,0.00,Wunderground v.1.12,2013-01-13 14:09:00,
2013-01-13 09:14:00,42.1,41.6,30.04,SW,216,2.0,2.0,98,0.00,,,0.00,Wunderground v.1.12,2013-01-13 14:14:00,
2013-01-13 09:20:00,42.2,41.7,30.04,SW,216,1.0,1.0,98,0.00,,,0.00,Wunderground v.1.12,2013-01-13 14:20:00,
2013-01-13 09:26:00,42.3,41.8,30.04,SW,216,0.0,0.0,98,0.00,,,0.00,Wunderground v.1.12,2013-01-13 14:26:00,
2013-01-13 09:32:00,42.5,42.0,30.04,SW,216,0.0,0.0,98,0.00,,,0.00,Wunderground v.1.12,2013-01-13 14:32:00,
2013-01-13 09:38:00,42.5,42.0,30.04,SW,216,1.0,3.0,98,0.00,,,0.00,Wunderground v.1.12,2013-01-13 14:38:00,
2013-01-13 09:43:00,42.5,42.0,30.04,SW,216,2.0,3.0,98,0.00,,,0.00,Wunderground v.1.12,2013-01-13 14:43:00,
2013-01-13 09:49:00,42.5,42.0,30.04,SW,216,2.0,2.0,98,0.00,,,0.00,Wunderground v.1.12,2013-01-13 14:49:00,
2013-01-13 09:54:00,42.5,42.2,30.04,SW,216,2.0,3.0,99,0.00,,,0.00,Wunderground v.1.12,2013-01-13 14:54:00,
2013-01-13 09:59:00,42.5,42.0,30.04,SW,216,2.0,2.0,98,0.00,,,0.00,Wunderground v.1.12,2013-01-13 14:59:00,
2013-01-13 10:04:00,42.6,42.3,30.05,SW,216,1.0,1.0,99,0.00,,,0.00,Wunderground v.1.12,2013-01-13 15:04:00,
2013-01-13 10:09:00,42.8,42.5,30.05,SW,216,2.0,2.0,99,0.00,,,0.00,Wunderground v.1.12,2013-01-13 15:09:00,
2013-01-13 10:15:00,42.9,42.6,30.05,SW,216,1.0,4.0,99,0.00,,,0.00,Wunderground v.1.12,2013-01-13 15:15:00,
2013-01-13 10:21:00,43.1,42.8,30.04,SW,216,2.0,5.0,99,0.00,,,0.00,Wunderground v.1.12,2013-01-13 15:21:00,
2013-01-13 10:26:00,43.1,42.8,30.04,SW,219,2.0,6.0,99,0.00,,,0.00,Wunderground v.1.12,2013-01-13 15:26:00,
2013-01-13 10:33:00,43.2,42.9,30.03,SW,219,2.0,4.0,99,0.00,,,0.00,Wunderground v.1.12,2013-01-13 15:33:00,
2013-01-13 10:38:00,43.3,43.0,30.03,SW,219,2.0,3.0,99,0.00,,,0.00,Wunderground v.1.12,2013-01-13 15:38:00,
2013-01-13 10:43:00,43.3,43.0,30.03,SW,219,2.0,3.0,99,0.00,,,0.00,Wunderground v.1.12,2013-01-13 15:43:00,
2013-01-13 10:48:00,43.3,43.0,30.03,SW,225,2.0,7.0,99,0.00,,,0.00,Wunderground v.1.12,2013-01-13 15:48:00,
2013-01-13 10:53:00,43.3,43.0,30.03,SW,221,2.0,4.0,99,0.00,,,0.00,Wunderground v.1.12,2013-01-13 15:53:00,
2013-01-13 10:58:00,43.5,43.2,30.03,SW,221,3.0,4.0,99,0.00,,,0.00,Wunderground v.1.12,2013-01-13 15:58:00,
2013-01-13 11:03:00,43.5,43.2,30.03,SW,223,3.0,4.0,99,0.00,,,0.00,Wunderground v.1.12,2013-01-13 16:03:00,
2013-01-13 11:09:00,43.3,43.0,30.03,SW,227,3.0,4.0,99,0.00,,,0.00,Wunderground v.1.12,2013-01-13 16:09:00,
2013-01-13 11:16:00,43.5,43.2,30.03,SW,227,3.0,3.0,99,0.00,,,0.00,Wunderground v.1.12,2013-01-13 16:16:00,
2013-01-13 11:23:00,43.5,43.2,30.02,SW,225,3.0,10.0,99,0.00,,,0.00,Wunderground v.1.12,2013-01-13 16:23:00,
2013-01-13 11:28:00,43.6,43.3,30.02,SW,229,2.0,3.0,99,0.00,,,0.00,Wunderground v.1.12,2013-01-13 16:28:00,
2013-01-13 11:33:00,43.8,43.5,30.01,SW,229,2.0,3.0,99,0.00,,,0.00,Wunderground v.1.12,2013-01-13 16:33:00,
2013-01-13 11:39:00,43.8,43.5,30.01,SW,229,2.0,3.0,99,0.00,,,0.00,Wunderground v.1.12,2013-01-13 16:39:00,
2013-01-13 11:44:00,43.9,43.6,30.01,SW,229,2.0,4.0,99,0.00,,,0.00,Wunderground v.1.12,2013-01-13 16:44:00,
2013-01-13 11:51:00,43.9,43.6,30.00,SW,229,2.0,2.0,99,0.00,,,0.00,Wunderground v.1.12,2013-01-13 16:51:00,
2013-01-13 11:57:00,44.1,43.8,30.00,SW,229,1.0,3.0,99,0.00,,,0.00,Wunderground v.1.12,2013-01-13 16:57:00,
2013-01-13 12:01:00,44.1,43.8,30.00,SW,229,2.0,3.0,99,0.00,,,0.00,Wunderground v.1.12,2013-01-13 17:01:00,
2013-01-13 12:07:00,44.1,43.8,30.00,SW,229,3.0,4.0,99,0.00,,,0.00,Wunderground v.1.12,2013-01-13 17:07:00,
2013-01-13 12:13:00,44.1,43.8,30.00,SW,229,2.0,3.0,99,0.00,,,0.00,Wunderground v.1.12,2013-01-13 17:13:00,
2013-01-13 12:18:00,44.1,43.8,29.99,SW,229,1.0,2.0,99,0.00,,,0.00,Wunderground v.1.12,2013-01-13 17:18:00,
2013-01-13 12:23:00,44.2,43.9,29.99,SW,229,0.0,1.0,99,0.00,,,0.00,Wunderground v.1.12,2013-01-13 17:23:00,
2013-01-13 12:29:00,44.3,44.0,29.99,SW,229,0.0,0.0,99,0.00,,,0.00,Wunderground v.1.12,2013-01-13 17:29:00,
2013-01-13 12:34:00,44.6,44.3,29.98,SW,229,0.0,1.0,99,0.00,,,0.00,Wunderground v.1.12,2013-01-13 17:34:00,
2013-01-13 12:39:00,44.9,44.6,29.98,SW,229,0.0,0.0,99,0.00,,,0.00,Wunderground v.1.12,2013-01-13 17:39:00,
2013-01-13 12:44:00,45.2,44.9,29.98,SW,229,0.0,0.0,99,0.00,,,0.00,Wunderground v.1.12,2013-01-13 17:44:00,
2013-01-13 12:49:00,45.2,44.9,29.97,SW,229,0.0,0.0,99,0.00,,,0.00,Wunderground v.1.12,2013-01-13 17:49:00,
2013-01-13 12:56:00,45.2,44.9,29.97,SW,229,0.0,0.0,99,0.00,,,0.00,Wunderground v.1.12,2013-01-13 17:56:00,
2013-01-13 13:01:00,45.4,45.1,29.97,SW,229,0.0,0.0,99,0.00,,,0.00,Wunderground v.1.12,2013-01-13 18:01:00,
2013-01-13 13:07:00,45.5,45.2,29.97,SW,229,0.0,0.0,99,0.00,,,0.00,Wunderground v.1.12,2013-01-13 18:07:00,
2013-01-13 13:13:00,45.7,45.4,29.97,SW,229,0.0,0.0,99,0.00,,,0.00,Wunderground v.1.12,2013-01-13 18:13:00,
2013-01-13 13:18:00,45.7,45.4,29.97,SW,229,0.0,2.0,99,0.00,,,0.00,Wunderground v.1.12,2013-01-13 18:18:00,
2013-01-13 13:23:00,45.7,45.4,29.97,SW,225,0.0,2.0,99,0.00,,,0.00,Wunderground v.1.12,2013-01-13 18:23:00,
2013-01-13 13:28:00,45.8,45.5,29.97,SW,229,0.0,0.0,99,0.00,,,0.00,Wunderground v.1.12,2013-01-13 18:28:00,
2013-01-13 13:33:00,45.8,45.5,29.97,SW,229,0.0,3.0,99,0.00,,,0.00,Wunderground v.1.12,2013-01-13 18:33:00,
2013-01-13 13:39:00,45.8,45.5,29.97,SW,229,1.0,2.0,99,0.00,,,0.00,Wunderground v.1.12,2013-01-13 18:39:00,
2013-01-13 13:46:00,46.0,45.7,29.97,SW,229,1.0,2.0,99,0.00,,,0.00,Wunderground v.1.12,2013-01-13 18:46:00,
2013-01-13 13:52:00,46.0,45.7,29.98,SW,229,1.0,2.0,99,0.00,,,0.00,Wunderground v.1.12,2013-01-13 18:52:00,
2013-01-13 13:58:00,45.8,45.5,29.98,SW,229,0.0,1.0,99,0.00,,,0.00,Wunderground v.1.12,2013-01-13 18:58:00,
2013-01-13 14:03:00,46.0,45.7,29.96,SW,229,0.0,0.0,99,0.00,,,0.00,Wunderground v.1.12,2013-01-13 19:03:00,
2013-01-13 14:08:00,46.0,45.7,29.96,SW,229,0.0,0.0,99,0.00,,,0.00,Wunderground v.1.12,2013-01-13 19:08:00,
2013-01-13 14:14:00,46.1,45.8,29.96,SW,229,0.0,0.0,99,0.00,,,0.00,Wunderground v.1.12,2013-01-13 19:14:00,
2013-01-13 14:19:00,46.2,45.9,29.95,SW,229,0.0,0.0,99,0.00,,,0.00,Wunderground v.1.12,2013-01-13 19:19:00,
2013-01-13 14:25:00,46.5,46.2,29.95,SW,229,0.0,0.0,99,0.00,,,0.00,Wunderground v.1.12,2013-01-13 19:25:00,
2013-01-13 14:31:00,46.7,46.4,29.95,SW,229,0.0,0.0,99,0.00,,,0.00,Wunderground v.1.12,2013-01-13 19:31:00,
2013-01-13 14:37:00,46.8,46.5,29.95,SW,229,0.0,0.0,99,0.00,,,0.00,Wunderground v.1.12,2013-01-13 19:37:00,
2013-01-13 14:43:00,47.0,46.7,29.95,SW,229,0.0,2.0,99,0.00,,,0.00,Wunderground v.1.12,2013-01-13 19:43:00,
2013-01-13 14:48:00,47.1,46.8,29.96,SW,225,0.0,4.0,99,0.00,,,0.00,Wunderground v.1.12,2013-01-13 19:48:00,
2013-01-13 14:53:00,47.1,46.8,29.96,SW,229,0.0,1.0,99,0.00,,,0.00,Wunderground v.1.12,2013-01-13 19:53:00,
2013-01-13 14:59:00,47.3,47.0,29.96,SW,229,0.0,1.0,99,0.00,,,0.00,Wunderground v.1.12,2013-01-13 19:59:00,
2013-01-13 15:05:00,47.3,47.0,29.95,SW,229,1.0,1.0,99,0.00,,,0.00,Wunderground v.1.12,2013-01-13 20:05:00,
2013-01-13 15:10:00,47.3,47.0,29.95,SW,229,0.0,1.0,99,0.00,,,0.00,Wunderground v.1.12,2013-01-13 20:10:00,
2013-01-13 15:16:00,47.3,47.0,29.95,SW,229,0.0,0.0,99,0.00,,,0.00,Wunderground v.1.12,2013-01-13 20:16:00,
2013-01-13 15:22:00,47.4,47.1,29.95,SW,229,0.0,3.0,99,0.00,,,0.00,Wunderground v.1.12,2013-01-13 20:22:00,
2013-01-13 15:28:00,47.4,47.1,29.95,SW,229,0.0,0.0,99,0.00,,,0.00,Wunderground v.1.12,2013-01-13 20:28:00,
2013-01-13 15:33:00,47.4,47.1,29.95,SW,229,0.0,0.0,99,0.00,,,0.00,Wunderground v.1.12,2013-01-13 20:33:00,
2013-01-13 15:38:00,47.4,47.1,29.95,SW,229,0.0,2.0,99,0.00,,,0.00,Wunderground v.1.12,2013-01-13 20:38:00,
2013-01-13 15:43:00,47.4,47.1,29.95,SW,229,0.0,1.0,99,0.00,,,0.00,Wunderground v.1.12,2013-01-13 20:43:00,
2013-01-13 15:48:00,47.4,47.1,29.94,SW,229,0.0,3.0,99,0.00,,,0.00,Wunderground v.1.12,2013-01-13 20:48:00,
2013-01-13 15:54:00,47.3,47.0,29.94,SW,229,0.0,2.0,99,0.00,,,0.00,Wunderground v.1.12,2013-01-13 20:54:00,
2013-01-13 15:59:00,47.3,47.0,29.94,SW,229,0.0,0.0,99,0.00,,,0.00,Wunderground v.1.12,2013-01-13 20:59:00,
2013-01-13 16:05:00,47.3,47.0,29.93,SW,229,0.0,0.0,99,0.00,,,0.00,Wunderground v.1.12,2013-01-13 21:05:00,
2013-01-13 16:10:00,47.1,46.8,29.93,SW,229,0.0,0.0,99,0.00,,,0.00,Wunderground v.1.12,2013-01-13 21:10:00,
2013-01-13 16:16:00,47.0,46.7,29.93,SW,229,0.0,1.0,99,0.00,,,0.00,Wunderground v.1.12,2013-01-13 21:16:00,
2013-01-13 16:21:00,47.0,46.7,29.92,SW,229,0.0,1.0,99,0.00,,,0.00,Wunderground v.1.12,2013-01-13 21:21:00,
2013-01-13 16:28:00,46.8,46.5,29.92,SW,229,0.0,0.0,99,0.00,,,0.00,Wunderground v.1.12,2013-01-13 21:28:00,
2013-01-13 16:33:00,46.7,46.4,29.92,SW,229,0.0,0.0,99,0.00,,,0.00,Wunderground v.1.12,2013-01-13 21:33:00,
2013-01-13 16:38:00,46.4,46.1,29.92,SW,229,0.0,0.0,99,0.00,,,0.00,Wunderground v.1.12,2013-01-13 21:38:00,
2013-01-13 16:43:00,46.4,46.1,29.92,SW,229,0.0,1.0,99,0.00,,,0.00,Wunderground v.1.12,2013-01-13 21:43:00,
2013-01-13 16:48:00,46.2,45.9,29.91,SW,229,0.0,0.0,99,0.00,,,0.00,Wunderground v.1.12,2013-01-13 21:48:00,
2013-01-13 16:53:00,46.2,45.9,29.92,SW,225,0.0,2.0,99,0.00,,,0.00,Wunderground v.1.12,2013-01-13 21:53:00,
2013-01-13 16:58:00,46.2,45.9,29.91,SW,229,0.0,1.0,99,0.00,,,0.00,Wunderground v.1.12,2013-01-13 21:58:00,
2013-01-13 17:04:00,46.2,45.9,29.91,SW,229,0.0,0.0,99,0.00,,,0.00,Wunderground v.1.12,2013-01-13 22:04:00,
2013-01-13 17:09:00,46.4,46.1,29.91,SW,229,1.0,2.0,99,0.00,,,0.00,Wunderground v.1.12,2013-01-13 22:09:00,
2013-01-13 17:15:00,46.7,46.4,29.91,SW,229,1.0,1.0,99,0.00,,,0.00,Wunderground v.1.12,2013-01-13 22:15:00,
2013-01-13 17:20:00,47.0,46.7,29.91,SW,227,1.0,4.0,99,0.00,,,0.00,Wunderground v.1.12,2013-01-13 22:20:00,
2013-01-13 17:27:00,47.3,47.0,29.91,SW,221,1.0,3.0,99,0.00,,,0.00,Wunderground v.1.12,2013-01-13 22:27:00,
2013-01-13 17:32:00,47.3,47.0,29.91,SW,220,1.0,3.0,99,0.00,,,0.00,Wunderground v.1.12,2013-01-13 22:32:00,
2013-01-13 17:38:00,47.3,47.0,29.91,SW,219,1.0,2.0,99,0.00,,,0.00,Wunderground v.1.12,2013-01-13 22:38:00,
2013-01-13 17:44:00,47.4,47.1,29.91,SW,217,1.0,3.0,99,0.00,,,0.00,Wunderground v.1.12,2013-01-13 22:44:00,
2013-01-13 17:49:00,47.4,47.1,29.90,SW,217,1.0,1.0,99,0.00,,,0.00,Wunderground v.1.12,2013-01-13 22:49:00,
2013-01-13 17:54:00,47.3,47.0,29.90,SW,217,0.0,0.0,99,0.00,,,0.00,Wunderground v.1.12,2013-01-13 22:54:00,
2013-01-13 18:01:00,47.3,47.0,29.90,SW,217,1.0,1.0,99,0.00,,,0.00,Wunderground v.1.12,2013-01-13 23:01:00,
2013-01-13 18:07:00,47.3,47.0,29.90,SW,217,1.0,1.0,99,0.00,,,0.00,Wunderground v.1.12,2013-01-13 23:07:00,
2013-01-13 18:13:00,47.4,47.1,29.90,SW,217,1.0,2.0,99,0.00,,,0.00,Wunderground v.1.12,2013-01-13 23:13:00,
2013-01-13 18:19:00,47.3,47.0,29.90,SW,217,1.0,2.0,99,0.00,,,0.00,Wunderground v.1.12,2013-01-13 23:19:00,
2013-01-13 18:24:00,47.4,47.1,29.90,SW,217,1.0,1.0,99,0.00,,,0.00,Wunderground v.1.12,2013-01-13 23:24:00,
2013-01-13 18:29:00,47.7,47.4,29.90,SSW,212,1.0,4.0,99,0.00,,,0.00,Wunderground v.1.12,2013-01-13 23:29:00,
2013-01-13 18:35:00,47.9,47.6,29.90,SSW,212,1.0,3.0,99,0.00,,,0.00,Wunderground v.1.12,2013-01-13 23:35:00,
2013-01-13 18:41:00,47.9,47.6,29.90,SSW,212,1.0,1.0,99,0.00,,,0.00,Wunderground v.1.12,2013-01-13 23:41:00,
2013-01-13 18:46:00,47.7,47.4,29.90,SSW,212,0.0,0.0,99,0.00,,,0.00,Wunderground v.1.12,2013-01-13 23:46:00,
2013-01-13 18:52:00,47.9,47.6,29.90,SSW,212,0.0,0.0,99,0.00,,,0.00,Wunderground v.1.12,2013-01-13 23:52:00,
2013-01-13 18:57:00,47.9,47.6,29.90,SSW,212,0.0,0.0,99,0.00,,,0.00,Wunderground v.1.12,2013-01-13 23:57:00,
2013-01-13 19:03:00,47.9,47.6,29.90,SSW,212,0.0,1.0,99,0.00,,,0.00,Wunderground v.1.12,2013-01-14 00:03:00,
2013-01-13 19:08:00,48.0,47.7,29.90,SSW,212,0.0,1.0,99,0.00,,,0.00,Wunderground v.1.12,2013-01-14 00:08:00,
2013-01-13 19:13:00,48.2,47.9,29.90,SSW,212,0.0,0.0,99,0.00,,,0.00,Wunderground v.1.12,2013-01-14 00:13:00,
2013-01-13 19:18:00,48.2,47.9,29.90,SSW,212,0.0,2.0,99,0.00,,,0.00,Wunderground v.1.12,2013-01-14 00:18:00,
2013-01-13 19:23:00,48.3,48.0,29.90,SSW,212,0.0,1.0,99,0.00,,,0.00,Wunderground v.1.12,2013-01-14 00:23:00,
2013-01-13 19:29:00,48.3,48.0,29.90,SSW,212,0.0,0.0,99,0.00,,,0.00,Wunderground v.1.12,2013-01-14 00:29:00,
2013-01-13 19:35:00,48.2,47.9,29.90,SSW,212,0.0,0.0,99,0.00,,,0.00,Wunderground v.1.12,2013-01-14 00:35:00,
2013-01-13 19:40:00,47.7,47.4,29.90,SSW,212,0.0,0.0,99,0.00,,,0.00,Wunderground v.1.12,2013-01-14 00:40:00,
2013-01-13 19:45:00,47.7,47.4,29.90,SSW,212,0.0,1.0,99,0.00,,,0.00,Wunderground v.1.12,2013-01-14 00:45:00,
2013-01-13 19:51:00,47.9,47.6,29.89,SSW,212,0.0,0.0,99,0.00,,,0.00,Wunderground v.1.12,2013-01-14 00:51:00,
2013-01-13 19:57:00,48.3,48.0,29.89,SSW,212,0.0,0.0,99,0.00,,,0.00,Wunderground v.1.12,2013-01-14 00:57:00,
2013-01-13 20:03:00,48.6,48.3,29.89,SW,221,1.0,1.0,99,0.00,,,0.00,Wunderground v.1.12,2013-01-14 01:03:00,
2013-01-13 20:08:00,48.9,48.6,29.89,SSW,209,1.0,3.0,99,0.00,,,0.00,Wunderground v.1.12,2013-01-14 01:08:00,
2013-01-13 20:13:00,49.1,48.8,29.89,SSW,203,1.0,2.0,99,0.00,,,0.00,Wunderground v.1.12,2013-01-14 01:13:00,
2013-01-13 20:18:00,49.2,48.9,29.89,SSW,204,1.0,1.0,99,0.00,,,0.00,Wunderground v.1.12,2013-01-14 01:18:00,
2013-01-13 20:23:00,49.2,48.9,29.89,SSW,203,1.0,7.0,99,0.00,,,0.00,Wunderground v.1.12,2013-01-14 01:23:00,
2013-01-13 20:28:00,49.2,48.9,29.89,SSW,195,1.0,4.0,99,0.00,,,0.00,Wunderground v.1.12,2013-01-14 01:28:00,
2013-01-13 20:34:00,49.2,48.9,29.89,WSW,254,2.0,2.0,99,0.00,,,0.00,Wunderground v.1.12,2013-01-14 01:34:00,
2013-01-13 20:40:00,49.4,49.1,29.89,WSW,243,2.0,4.0,99,0.00,,,0.00,Wunderground v.1.12,2013-01-14 01:40:00,
2013-01-13 20:45:00,49.4,49.1,29.89,WSW,244,3.0,3.0,99,0.00,,,0.00,Wunderground v.1.12,2013-01-14 01:45:00,
2013-01-13 20:51:00,49.4,49.1,29.89,WSW,244,1.0,2.0,99,0.00,,,0.00,Wunderground v.1.12,2013-01-14 01:51:00,
2013-01-13 20:56:00,49.4,49.1,29.89,WSW,244,1.0,4.0,99,0.00,,,0.00,Wunderground v.1.12,2013-01-14 01:56:00,
2013-01-13 21:03:00,49.4,49.1,29.89,WSW,244,1.0,2.0,99,0.00,,,0.00,Wunderground v.1.12,2013-01-14 02:03:00,
2013-01-13 21:08:00,49.4,49.1,29.89,WSW,244,1.0,4.0,99,0.00,,,0.00,Wunderground v.1.12,2013-01-14 02:08:00,
2013-01-13 21:14:00,49.4,49.1,29.89,SW,230,1.0,1.0,99,0.00,,,0.00,Wunderground v.1.12,2013-01-14 02:14:00,
2013-01-13 21:21:00,49.4,49.1,29.89,SW,230,0.0,0.0,99,0.00,,,0.00,Wunderground v.1.12,2013-01-14 02:21:00,
2013-01-13 21:26:00,49.4,49.1,29.89,SW,221,1.0,2.0,99,0.00,,,0.00,Wunderground v.1.12,2013-01-14 02:26:00,
2013-01-13 21:33:00,49.4,49.1,29.89,SW,227,1.0,2.0,99,0.00,,,0.00,Wunderground v.1.12,2013-01-14 02:33:00,
2013-01-13 21:38:00,49.5,49.2,29.89,SW,228,1.0,3.0,99,0.00,,,0.00,Wunderground v.1.12,2013-01-14 02:38:00,
2013-01-13 21:43:00,49.5,49.2,29.89,SW,228,1.0,4.0,99,0.00,,,0.00,Wunderground v.1.12,2013-01-14 02:43:00,
2013-01-13 21:48:00,49.5,49.2,29.88,SW,223,1.0,2.0,99,0.00,,,0.00,Wunderground v.1.12,2013-01-14 02:48:00,
2013-01-13 21:53:00,49.5,49.2,29.88,SW,220,1.0,3.0,99,0.00,,,0.00,Wunderground v.1.12,2013-01-14 02:53:00,
2013-01-13 22:00:00,49.5,49.2,29.88,SW,221,1.0,1.0,99,0.00,,,0.00,Wunderground v.1.12,2013-01-14 03:00:00,
2013-01-13 22:05:00,49.5,49.0,29.89,SW,221,0.0,1.0,98,0.00,,,0.00,Wunderground v.1.12,2013-01-14 03:05:00,
2013-01-13 22:10:00,49.4,48.9,29.89,SW,220,0.0,1.0,98,0.00,,,0.00,Wunderground v.1.12,2013-01-14 03:10:00,
2013-01-13 22:15:00,49.5,49.0,29.89,SW,214,1.0,3.0,98,0.00,,,0.00,Wunderground v.1.12,2013-01-14 03:15:00,
2013-01-13 22:22:00,49.5,49.0,29.88,SSW,207,1.0,3.0,98,0.00,,,0.00,Wunderground v.1.12,2013-01-14 03:22:00,
2013-01-13 22:27:00,49.6,49.1,29.88,SSW,202,1.0,2.0,98,0.00,,,0.00,Wunderground v.1.12,2013-01-14 03:27:00,
2013-01-13 22:32:00,49.6,48.8,29.88,SSW,195,1.0,1.0,97,0.00,,,0.00,Wunderground v.1.12,2013-01-14 03:32:00,
2013-01-13 22:38:00,49.8,49.0,29.88,South,189,1.0,2.0,97,0.00,,,0.00,Wunderground v.1.12,2013-01-14 03:38:00,
2013-01-13 22:43:00,49.6,48.8,29.88,South,189,1.0,4.0,97,0.00,,,0.00,Wunderground v.1.12,2013-01-14 03:43:00,
2013-01-13 22:49:00,49.6,48.5,29.87,South,189,1.0,1.0,96,0.00,,,0.00,Wunderground v.1.12,2013-01-14 03:49:00,
2013-01-13 22:54:00,49.6,48.5,29.87,South,189,1.0,2.0,96,0.00,,,0.00,Wunderground v.1.12,2013-01-14 03:54:00,
2013-01-13 22:59:00,49.6,48.5,29.87,SSW,192,1.0,1.0,96,0.00,,,0.00,Wunderground v.1.12,2013-01-14 03:59:00,
2013-01-13 23:04:00,49.8,48.7,29.88,SSW,192,1.0,1.0,96,0.00,,,0.00,Wunderground v.1.12,2013-01-14 04:04:00,
2013-01-13 23:10:00,49.9,48.8,29.88,SW,220,1.0,2.0,96,0.00,,,0.00,Wunderground v.1.12,2013-01-14 04:10:00,
2013-01-13 23:15:00,50.1,48.7,29.88,West,263,2.0,7.0,95,0.00,,,0.00,Wunderground v.1.12,2013-01-14 04:15:00,
2013-01-13 23:21:00,50.1,48.7,29.87,SSW,211,2.0,4.0,95,0.00,,,0.00,Wunderground v.1.12,2013-01-14 04:21:00,
2013-01-13 23:26:00,50.1,48.7,29.87,SW,217,2.0,2.0,95,0.00,,,0.00,Wunderground v.1.12,2013-01-14 04:26:00,
2013-01-13 23:33:00,50.2,48.5,29.87,SW,227,1.0,2.0,94,0.00,,,0.00,Wunderground v.1.12,2013-01-14 04:33:00,
2013-01-13 23:38:00,50.2,48.5,29.87,SW,235,1.0,5.0,94,0.00,,,0.00,Wunderground v.1.12,2013-01-14 04:38:00,
2013-01-13 23:45:00,50.4,48.7,29.87,WSW,251,1.0,4.0,94,0.00,,,0.00,Wunderground v.1.12,2013-01-14 04:45:00,
2013-01-13 23:50:00,50.4,48.5,29.87,SW,220,2.0,3.0,93,0.00,,,0.00,Wunderground v.1.12,2013-01-14 04:50:00,
2013-01-13 23:55:00,50.4,48.5,29.87,West,266,2.0,2.0,93,0.00,,,0.00,Wunderground v.1.12,2013-01-14 04:55:00,